Temp
5 5 5 4 4 4 3 3 2 2 2 1 1 1 0 1 0 1 1 0 -0 -0 -0 -1 -1 -1 -1 -1 -2 -2 -2 -2
5 5 4 4 4 4 3 3 3 2 2 2 0 1 1 1 0 0 -0 -1 -1 -1 -1 -1 -1 -2 -2 -2 -2 -2 -2 -2
5 5 5 4 4 4 4 3 2 2 1 0 0 0 0 -0 -1 -1 -1 -1 -1 -1 -1 -2 -2 -2 -2 -3 -3 -3 -3 -4
5 5 5 5 4 4 3 2 2 1 1 0 0 -0 -1 -1 -2 -2 -2 -2 -2 -2 -2 -2 -3 -3 -4 -4 -4 -5 -5 -5
5 5 4 4 4 3 2 1 1 1 0 -0 -1 -2 -2 -2 -2 -2 -2 -2 -2 -3 -3 -3 -4 -4 -5 -5 -6 -6 -6 -7
5 4 3 3 2 2 2 1 1 0 -0 -1 -1 -2 -2 -3 -2 -2 -2 -2 -3 -3 -4 -4 -5 -6 -7 -7 -7 -8 -8 -9
4 3 3 2 1 1 1 0 -0 -1 -1 -1 -2 -2 -2 -2 -2 -2 -2 -3 -4 -4 -5 -6 -7 -7 -7 -8 -8 -9 -10 -11
3 2 2 1 1 1 1 -0 -1 -1 -1 -2 -2 -2 -2 -3 -3 -3 -4 -4 -5 -6 -6 -6 -7 -8 -8 -10 -11 -12 -12 -12
2 2 2 1 1 1 0 -0 -1 -1 -2 -2 -2 -2 -3 -3 -4 -4 -5 -5 -5 -6 -6 -7 -7 -9 -10 -11 -11 -12 -12 -12
2 2 2 1 1 0 -0 -1 -1 -2 -2 -2 -2 -2 -3 -3 -4 -5 -5 -5 -6 -7 -7 -8 -9 -10 -11 -11 -11 -12 -12 -12
2 2 1 1 0 0 -0 -1 -2 -2 -2 -3 -2 -3 -4 -5 -5 -5 -5 -6 -7 -7 -8 -9 -9 -10 -11 -12 -12 -12 -13 -13
2 2 1 1 0 -0 -1 -1 -2 -2 -2 -3 -3 -4 -5 -5 -5 -5 -6 -7 -7 -8 -9 -9 -10 -11 -12 -12 -12 -13 -13 -14
2 1 1 1 0 -1 -1 -1 -2 -2 -3 -4 -5 -5 -5 -5 -6 -6 -7 -7 -8 -9 -9 -10 -11 -11 -12 -13 -13 -14 -14 -14
1 1 0 0 -1 -1 -2 -2 -2 -3 -4 -5 -5 -5 -5 -6 -6 -7 -8 -8 -9 -10 -10 -11 -11 -12 -12 -13 -13 -13 -14 -14
1 1 0 -1 -1 -2 -2 -3 -3 -4 -5 -5 -6 -6 -6 -6 -7 -8 -9 -9 -10 -10 -11 -12 -12 -13 -13 -13 -14 -14 -14 -15
0 -0 -1 -1 -2 -2 -3 -3 -3 -4 -6 -6 -6 -6 -6 -7 -8 -9 -10 -10 -11 -11 -11 -12 -13 -13 -13 -14 -14 -14 -15 -15
-0 -1 -2 -2 -3 -3 -3 -4 -4 -6 -6 -6 -6 -7 -7 -8 -9 -10 -10 -11 -11 -11 -12 -13 -13 -13 -14 -14 -14 -15 -15 -15
-1 -2 -2 -3 -3 -3 -3 -5 -6 -6 -6 -6 -7 -7 -8 -9 -10 -10 -11 -11 -11 -12 -12 -13 -13 -14 -14 -15 -15 -15 -15 -15
-2 -2 -3 -3 -3 -4 -5 -6 -7 -7 -7 -7 -7 -8 -9 -9 -10 -11 -11 -12 -12 -12 -13 -13 -14 -14 -15 -15 -15 -15 -15 -16
Height
3167 3169 3170 3170 3170 3170 3170 3169 3168 3166 3161 3159 3153 3154 3160 3162 3163 3161 3160 3158 3155 3152 3150 3147 3143 3139 3134 3131 3127 3123 3119 3113
3165 3166 3167 3167 3167 3166 3166 3164 3163 3162 3159 3159 3160 3157 3160 3160 3160 3158 3156 3154 3152 3149 3145 3141 3137 3132 3127 3123 3118 3114 3110 3104
3162 3162 3161 3161 3161 3161 3161 3161 3159 3158 3157 3157 3157 3157 3156 3155 3154 3153 3151 3149 3145 3141 3136 3132 3128 3122 3117 3113 3108 3103 3099 3093
3157 3157 3158 3158 3158 3157 3157 3157 3157 3156 3156 3155 3154 3152 3152 3151 3149 3146 3143 3139 3135 3130 3126 3121 3116 3112 3107 3102 3097 3092 3087 3083
3154 3155 3155 3155 3155 3155 3156 3156 3155 3154 3152 3151 3149 3148 3146 3144 3141 3137 3133 3129 3125 3120 3116 3111 3106 3102 3096 3091 3085 3080 3074 3071
3151 3152 3152 3153 3153 3153 3153 3152 3150 3149 3148 3146 3145 3143 3141 3138 3135 3130 3126 3121 3118 3113 3108 3102 3096 3090 3085 3079 3074 3068 3064 3058
3148 3149 3150 3151 3151 3150 3149 3147 3146 3144 3143 3141 3139 3137 3135 3132 3128 3124 3118 3114 3110 3103 3098 3091 3085 3080 3074 3068 3062 3057 3052 3048
3146 3147 3148 3147 3147 3146 3145 3143 3142 3140 3138 3136 3133 3131 3129 3125 3121 3116 3112 3107 3100 3093 3087 3081 3076 3069 3062 3057 3051 3048 3044 3041
3143 3144 3144 3144 3143 3142 3140 3139 3138 3136 3133 3130 3127 3125 3122 3119 3114 3109 3103 3097 3090 3085 3079 3072 3066 3061 3056 3050 3046 3041 3037 3033
3140 3141 3140 3140 3139 3137 3136 3135 3133 3130 3127 3124 3121 3117 3114 3109 3105 3099 3093 3087 3081 3073 3067 3062 3057 3053 3048 3043 3038 3033 3029 3025
3136 3137 3136 3135 3134 3132 3131 3128 3126 3123 3119 3116 3112 3108 3105 3100 3095 3090 3084 3077 3071 3065 3060 3054 3048 3043 3039 3034 3029 3024 3020 3018
3131 3131 3130 3129 3128 3126 3124 3122 3119 3115 3111 3108 3105 3101 3097 3092 3087 3081 3075 3069 3063 3057 3050 3044 3039 3033 3029 3025 3021 3016 3013 3010
3126 3125 3124 3123 3122 3120 3118 3115 3113 3109 3105 3101 3097 3093 3089 3084 3079 3073 3067 3061 3054 3048 3041 3035 3029 3024 3020 3016 3011 3006 3003 3001
3122 3120 3119 3117 3116 3114 3111 3109 3106 3102 3098 3094 3090 3086 3082 3076 3070 3064 3058 3051 3045 3038 3032 3025 3020 3015 3010 3006 3002 2999 2996 2994
3115 3114 3112 3112 3109 3107 3104 3101 3099 3095 3091 3087 3083 3079 3073 3067 3061 3054 3048 3041 3035 3029 3023 3017 3012 3008 3003 3000 2996 2993 2991 2987
3109 3107 3106 3105 3102 3100 3098 3095 3091 3087 3084 3080 3075 3070 3064 3057 3051 3045 3038 3033 3028 3022 3015 3010 3004 3000 2997 2993 2990 2987 2983 2980
3102 3101 3100 3098 3097 3094 3092 3088 3083 3080 3076 3071 3065 3060 3054 3048 3042 3037 3031 3025 3019 3013 3007 3002 2997 2993 2990 2987 2984 2980 2977 2973
3096 3095 3094 3092 3090 3086 3082 3078 3075 3072 3067 3062 3057 3051 3046 3040 3034 3028 3022 3016 3011 3005 2999 2994 2990 2986 2983 2980 2977 2973 2971 2967
3089 3089 3087 3085 3081 3078 3074 3071 3068 3064 3059 3054 3049 3043 3037 3031 3026 3020 3014 3009 3003 2997 2992 2987 2983 2978 2976 2973 2970 2968 2965 2961
Wind_Speed
16 16 17 18 18 19 22 24 26 29 28 28 19 10 6 9 11 14 18 20 22 25 29 33 37 40 40 40 41 42 44 46
14 15 17 19 21 23 25 26 26 20 13 12 3 2 7 8 9 13 16 20 23 28 32 33 33 36 36 38 40 41 41 44
14 17 18 20 20 21 20 19 13 8 6 2 3 5 8 10 12 15 18 23 27 29 32 35 35 36 37 38 39 41 43 46
17 15 14 12 11 12 12 8 6 4 4 7 9 9 11 12 17 21 26 30 32 34 37 38 39 38 40 42 43 44 45 44
14 13 14 11 8 7 6 5 9 13 19 21 16 13 16 20 25 30 36 37 39 40 41 41 41 42 43 44 45 45 46 44
14 12 10 9 10 10 11 13 17 24 20 14 17 20 22 26 31 36 39 41 40 42 42 42 43 43 44 44 44 44 43 44
13 12 10 6 8 14 18 19 17 12 16 18 22 24 26 33 35 39 40 40 42 43 42 42 42 43 44 44 44 43 38 30
11 8 6 9 10 10 10 13 15 19 22 24 25 28 31 35 39 40 39 41 41 42 43 44 44 45 45 37 35 25 27 32
11 9 8 10 10 13 15 16 20 21 26 29 32 36 35 39 39 38 41 42 43 43 43 44 45 41 30 29 31 33 33 33
12 9 11 13 14 15 18 22 23 25 28 32 35 35 41 39 40 41 43 44 44 45 45 46 45 33 29 31 31 34 34 32
14 12 13 16 19 20 21 23 24 28 34 37 37 37 38 38 40 42 43 43 43 44 44 45 43 36 28 31 34 33 32 31
17 17 18 22 23 23 25 26 30 36 40 34 37 35 35 39 41 43 43 43 43 43 43 42 41 37 28 29 32 35 31 27
22 25 25 25 26 28 30 31 34 40 35 33 32 35 38 40 41 42 43 42 41 41 41 40 39 35 29 34 30 30 27 28
25 28 29 29 29 31 34 31 36 37 34 32 33 36 38 40 42 42 41 41 41 40 41 40 38 32 30 25 25 25 25 26
29 30 30 29 30 31 32 35 36 35 33 32 33 36 39 42 41 41 41 41 40 40 41 39 33 28 25 22 23 24 27 29
27 28 28 28 30 32 33 37 39 34 31 32 35 38 40 41 41 41 40 40 40 40 40 36 30 28 27 25 25 24 25 28
24 27 27 27 30 32 37 35 33 30 31 33 37 39 40 40 40 40 40 41 41 41 38 34 31 30 28 27 25 25 24 25
23 25 25 29 31 33 35 31 29 30 32 35 38 39 40 40 40 41 40 41 40 39 37 34 31 31 28 25 24 22 22 25
22 24 27 31 33 33 31 28 29 30 34 37 39 39 40 40 41 40 39 39 39 37 35 33 31 30 25 23 20 20 22 25
Wind_Direction
202 204 213 225 239 251 263 268 274 276 280 269 272 351 236 259 276 279 281 291 299 303 303 303 301 298 297 296 295 294 296 295
233 236 243 248 253 261 267 273 277 288 305 294 335 343 250 260 275 287 297 300 300 300 298 298 298 297 298 297 297 298 299 298
256 261 257 256 254 259 264 271 287 293 316 323 290 298 304 302 305 306 303 300 300 304 307 308 307 305 304 303 303 302 302 300
264 254 244 238 241 250 258 254 267 289 308 308 302 300 296 296 303 308 316 316 315 313 313 313 312 310 308 308 307 306 304 302
240 235 235 235 241 240 226 269 300 305 311 312 303 295 300 308 315 318 320 320 318 317 316 315 313 312 310 309 307 306 305 303
227 224 220 233 247 249 263 280 293 302 297 296 305 307 310 313 314 316 317 316 315 313 314 314 313 312 309 309 309 309 308 307
211 216 231 243 283 288 287 292 295 294 295 302 307 303 303 312 313 313 312 312 312 314 315 314 312 311 311 312 312 310 309 307
214 215 255 272 287 282 301 308 295 293 296 298 302 307 305 311 311 308 309 310 314 316 316 315 314 315 315 313 312 304 305 306
216 249 269 281 298 291 287 293 304 298 304 297 293 307 299 306 307 309 311 315 316 314 314 316 318 315 305 304 306 305 302 301
236 259 277 281 286 286 280 286 297 302 293 302 295 297 306 309 309 312 316 316 316 319 320 317 315 308 298 301 302 302 298 296
244 268 281 280 285 283 286 294 295 293 288 293 291 305 310 311 314 315 314 317 319 317 315 314 313 311 296 302 303 299 299 300
254 270 277 279 283 284 283 283 293 289 287 291 310 309 311 313 314 316 317 317 316 315 315 315 314 312 300 299 296 292 293 292
257 265 271 279 280 276 283 276 289 285 301 309 312 310 311 312 315 316 315 315 316 317 317 316 315 311 298 296 293 292 292 279
260 268 271 273 272 276 272 280 284 295 305 307 307 309 312 315 315 314 315 318 320 320 320 318 316 308 307 303 303 301 293 285
266 270 268 268 270 274 283 284 295 302 302 303 307 310 313 314 315 317 319 321 321 321 320 318 313 307 306 304 300 297 292 293
268 269 264 269 275 281 281 299 300 300 302 304 308 313 316 317 319 320 320 319 319 319 319 316 312 306 303 304 304 300 298 299
268 267 268 271 275 286 297 298 301 300 302 309 315 317 318 318 318 318 318 318 320 320 318 315 310 306 303 299 301 302 303 302
266 265 267 273 284 289 303 299 297 301 308 314 316 317 318 318 318 318 317 317 318 317 316 312 306 304 304 301 303 302 304 306
266 266 272 279 285 289 294 294 298 306 313 316 317 317 317 317 316 315 315 316 316 315 314 309 304 302 301 302 302 303 307 312